Home   Weather   Roanoke   Past weeks

Flag for USA Past Weather in Roanoke, Virginia, USA — Yesterday and Last 2 Weeks

Now
52 °F

Sunny.


Feels Like: 49 °F
Forecast: 37 / 50 °F
Wind: 8 mph from West

Location: Roanoke Regional Airport

Current Time: Dec 7, 2016 at 1:33:00 pm

Latest Report: Dec 7, 2016 at 12:54 pm


Visibility: 10 mi

Pressure: 30.05 "Hg

Humidity: 45%

Dew Point: 31 °F

Location of RoanokeLocation

Past Weather in Roanoke — Graph

°F

Roanoke Temperature Yesterday

Maximum temperature yesterday: 47 °F (at 12:54 am)
Minimum temperature yesterday: 39 °F (at 12:54 pm)
Average temperature yesterday: 42 °F

High & Low Weather Summary for the Past Weeks

 TemperatureHumidityPressure
High70 °F (Nov 24, 1:54 pm)100% (Nov 29, 6:54 am)30.38 "Hg (Nov 29, 6:54 am)
Low30 °F (Nov 23, 5:54 am)19% (Nov 22, 2:54 pm)29.64 "Hg (Nov 30, 7:54 pm)
Average46 °F66%30.10 "Hg
* Reported Nov 22 11:54 am — Dec 7 11:54 am, Roanoke, Weather by CustomWeather, © 2016

Note: Actual official high and low records may vary slightly from our data, if they occured in-between our weather recording intervals... More about our weather records

Advertising

Roanoke Weather History for the Previous 24 Hours

Scroll right to see more
 ConditionsComfort  
Time TempWeatherWind HumidityBarometerVisibility
11:54 am
Wed, Dec 7
50 °FSunny.7 mph48%30.07 "Hg10 mi
10:54 am49 °FSunny.5 mph55%30.10 "Hg10 mi
9:54 am47 °FPartly sunny.7 mph52%30.09 "Hg10 mi
8:54 am48 °FScattered clouds.3 mph59%30.06 "Hg10 mi
7:54 am43 °FScattered clouds.3 mph74%30.04 "Hg10 mi
6:54 am40 °FPassing clouds.6 mph77%30.03 "Hg10 mi
5:54 am43 °FClear.3 mph71%30.01 "Hg10 mi
4:54 am45 °FClear.5 mph65%29.98 "Hg10 mi
3:54 am47 °FOvercast.10 mph71%29.95 "Hg10 mi
2:54 am48 °FPassing clouds.9 mph71%29.94 "Hg10 mi
1:54 am47 °FPassing clouds.7 mph77%29.89 "Hg10 mi
12:54 am43 °FOvercast.5 mph89%29.89 "Hg10 mi
11:54 pm
Tue, Dec 6
40 °FOvercast.5 mph93%29.90 "Hg10 mi
10:54 pm40 °FPartly cloudy.3 mph89%29.88 "Hg10 mi
9:54 pm39 °FMostly cloudy.5 mph93%29.87 "Hg10 mi
8:54 pm40 °FOvercast.5 mph89%29.87 "Hg10 mi
7:54 pm40 °FOvercast.9 mph89%29.83 "Hg10 mi
6:54 pm40 °FMostly cloudy.8 mph89%29.84 "Hg10 mi
5:54 pm40 °FOvercast.6 mph93%29.84 "Hg10 mi
4:54 pm40 °FMore clouds than sun.12 mph89%29.80 "Hg10 mi
3:54 pm40 °FLight rain. More clouds than sun.5 mph93%29.80 "Hg2 mi
2:54 pm40 °FLight rain. Overcast.6 mph93%29.82 "Hg2 mi
1:54 pm39 °FLight rain. Mostly cloudy.6 mph96%29.84 "Hg7 mi
Weather by CustomWeather, © 2016

See weather overviewHow to use our weather pages